Torna al catalogo

STARLINK-33638

AttivoComunicazioniVLEO
NORAD 63436·PAYLOAD·🇺🇸 United States

Lanciato Apr 4, 2025 da Vandenberg Space Force Base

Loading…

Prossimi Passaggi (prossime 24 ore)

TLE

AggiornatoSource: CelesTrak SupGP

Epoca: Sep 14, 2026, 21:11 UTC

1 63436C 25069D   26257.88312500 -.00012497  00000+0 -36938-3 0  2576
2 63436  53.1596 334.1988 0001189  85.2750 309.8777 15.34383436    17

Traccia STARLINK-33638 in tempo reale con AllMySat

Download on the App Store